Location: Kapla
(46.2483°N, 15.0094°E)
Time: 21:05:46
(UTC+00:00)

USA 234 - Pass Details

Date: 03 March 2021
Orbit: 1102 x 1105 km, 123.0° (Epoch: 18 April)

Event Time Altitude Azimuth Distance (km) Brightness Sun altitude
Exits shadow 19:39:58 43° 37° (NE) 1,514 3.8 -29.7°
Maximum altitude 19:42:15 70° 329° (NNW) 1,170 3.4 -30.1°
Drops below altitude 10° 19:48:44 10° 247° (WSW) 2,958 6.0 -31.1°
Sets 19:51:13 0° 246° (WSW) 3,914 6.6 -31.5°
